Location: Chateh
(58.6667°N, 118.6000°W)
Time: 18:26:24
(UTC+00:00)

Gurwin Techsat 1B - Pass Details

Date: 06 December 2023
Orbit: 810 x 813 km, 98.9° (Epoch: 21 February)

Event Time Altitude Azimuth Distance (km) Brightness Sun altitude
Rises 14:32:48 0° 19° (NNE) 3,352 11.8 -13.2°
Reaches altitude 10° 14:36:26 10° 353° (N) 2,418 10.8 -12.8°
Maximum altitude 14:38:47 13° 327° (NNW) 2,201 10.4 -12.5°
Enters shadow 14:39:10 13° 322° (NW) 2,207 10.4 -12.4°
